{"data":{"norad_id":55284,"intl_designator":"2023-010R","name":"STARLINK-5337","alt_names":[],"object_type":"PAYLOAD","status":"ACTIVE","operator":null,"country":"US","launch_date":"2023-01-19","launch_site_code":"AFWTR","launch_vehicle":null,"mission":null,"orbit_class":"UNKNOWN","rcs_meters":null,"size_class":null,"mass_kg":null,"dimensions":null,"purposes":["comms"],"wikipedia_slug":null,"has_3d_model":false,"image_url":null,"decayed_at":null,"tle_current":{"epoch":"2026-05-25T03:40:58.480032Z","epoch_age_seconds":61869,"freshness":"FRESH","line1":"1 55284U 23010R   26145.15345463  .00187856  00000+0  15163-1 0  9990","line2":"2 55284  69.9987 211.4879 0004222 262.6315  97.4364 14.98762271184228","mean_motion":14.98762271,"eccentricity":0.0004222,"inclination_deg":69.9987,"raan_deg":211.4879,"arg_perigee_deg":262.6315,"mean_anomaly_deg":97.4364,"bstar":0.015163,"rev_number":18422,"period_min":96.079280074165,"perigee_km":567.78564264161,"apogee_km":573.65325702785,"semimajor_km":6948.8564498347,"source":"CELESTRAK","updated_at":"2026-05-25T13:38:17.733474Z"}}}